Time,TemperatureF,DewpointF,PressureIn,WindDirection,WindDirectionDegrees,WindSpeedMPH,WindSpeedGustMPH,Humidity,HourlyPrecipIn,Conditions,Clouds,dailyrainin,SoftwareType,DateUTC
2013-01-17 00:00:00,5.4,-2.0,29.67,North,0,0.0,0.0,71,0.00,CLR,,0.00,WeatherDisplay:10.37,2013-01-17 09:00:00,
2013-01-17 00:05:00,5.4,-2.0,29.67,North,0,0.0,0.0,71,0.00,CLR,,0.00,WeatherDisplay:10.37,2013-01-17 09:05:00,
2013-01-17 00:11:00,5.4,-2.0,29.67,North,0,0.0,0.0,71,0.00,CLR,,0.00,WeatherDisplay:10.37,2013-01-17 09:11:00,
2013-01-17 00:16:00,5.4,-2.0,29.67,North,0,1.1,2.3,71,0.00,CLR,,0.00,WeatherDisplay:10.37,2013-01-17 09:16:00,
2013-01-17 00:21:00,5.5,-1.8,29.67,North,0,2.6,3.5,71,0.00,CLR,,0.00,WeatherDisplay:10.37,2013-01-17 09:21:00,
2013-01-17 00:26:00,5.5,-1.8,29.67,NNW,338,3.6,4.6,71,0.00,CLR,,0.00,WeatherDisplay:10.37,2013-01-17 09:26:00,
2013-01-17 00:31:00,5.5,-1.8,29.67,NNW,338,4.9,5.8,71,0.00,CLR,,0.00,WeatherDisplay:10.37,2013-01-17 09:31:00,
2013-01-17 00:36:00,5.5,-1.8,29.67,North,0,2.4,4.6,71,0.00,CLR,,0.00,WeatherDisplay:10.37,2013-01-17 09:36:00,
2013-01-17 00:41:00,5.7,-1.7,29.67,North,0,2.6,3.5,71,0.00,CLR,,0.00,WeatherDisplay:10.37,2013-01-17 09:41:00,
2013-01-17 00:46:00,5.7,-1.7,29.67,NNE,22,2.4,3.5,71,0.00,CLR,,0.00,WeatherDisplay:10.37,2013-01-17 09:46:00,
2013-01-17 00:51:00,5.9,-1.5,29.67,NNW,338,2.0,2.3,71,0.00,CLR,,0.00,WeatherDisplay:10.37,2013-01-17 09:51:00,
2013-01-17 00:56:00,5.9,-1.5,29.67,North,0,4.0,4.9,71,0.00,CLR,,0.00,WeatherDisplay:10.37,2013-01-17 09:56:00,
2013-01-17 01:01:00,5.9,-1.5,29.67,NNE,22,5.6,6.9,71,0.00,CLR,,0.00,WeatherDisplay:10.37,2013-01-17 10:01:00,
2013-01-17 01:06:00,5.9,-1.5,29.67,NNE,22,3.8,4.6,71,0.00,CLR,,0.00,WeatherDisplay:10.37,2013-01-17 10:06:00,
2013-01-17 01:11:00,5.9,-1.5,29.67,NNE,22,4.0,4.6,71,0.00,CLR,,0.00,WeatherDisplay:10.37,2013-01-17 10:11:00,
2013-01-17 01:16:00,5.9,-1.5,29.67,NNE,22,4.7,6.9,71,0.00,CLR,,0.00,WeatherDisplay:10.37,2013-01-17 10:16:00,
2013-01-17 01:21:00,5.9,-1.5,29.67,NNE,22,3.8,4.6,71,0.00,CLR,,0.00,WeatherDisplay:10.37,2013-01-17 10:21:00,
2013-01-17 01:26:00,5.9,-1.5,29.67,NNE,22,5.6,6.9,71,0.00,CLR,,0.00,WeatherDisplay:10.37,2013-01-17 10:26:00,
2013-01-17 01:31:00,5.9,-1.5,29.67,NNE,22,3.8,5.8,71,0.00,CLR,,0.00,WeatherDisplay:10.37,2013-01-17 10:31:00,
2013-01-17 01:36:00,5.9,-1.5,29.67,North,0,4.0,5.8,71,0.00,CLR,,0.00,WeatherDisplay:10.37,2013-01-17 10:36:00,
2013-01-17 01:41:00,6.1,-1.3,29.67,North,0,4.3,4.6,71,0.00,CLR,,0.00,WeatherDisplay:10.37,2013-01-17 10:41:00,
2013-01-17 01:46:00,6.1,-1.3,29.67,NW,315,3.1,3.5,71,0.00,CLR,,0.00,WeatherDisplay:10.37,2013-01-17 10:46:00,
2013-01-17 01:51:00,6.1,-1.3,29.67,NW,315,4.5,5.9,71,0.00,CLR,,0.00,WeatherDisplay:10.37,2013-01-17 10:51:00,
2013-01-17 03:41:00,6.1,-1.3,29.65,NNE,22,3.8,4.6,71,0.00,CLR,,0.00,WeatherDisplay:10.37,2013-01-17 12:41:00,
2013-01-17 03:46:00,6.1,-1.3,29.65,NNE,22,2.9,3.5,71,0.00,CLR,,0.00,WeatherDisplay:10.37,2013-01-17 12:46:00,
2013-01-17 03:51:00,6.1,-1.3,29.65,NNE,22,2.6,2.6,71,0.00,CLR,,0.00,WeatherDisplay:10.37,2013-01-17 12:51:00,
2013-01-17 03:56:00,6.1,-1.3,29.65,NNE,22,2.2,3.5,71,0.00,CLR,,0.00,WeatherDisplay:10.37,2013-01-17 12:56:00,
2013-01-17 04:01:00,6.1,-1.3,29.65,NNE,22,3.3,3.5,71,0.00,CLR,,0.00,WeatherDisplay:10.37,2013-01-17 13:01:00,
2013-01-17 04:07:00,6.1,-1.3,29.65,NNE,22,2.9,3.5,71,0.00,CLR,,0.00,WeatherDisplay:10.37,2013-01-17 13:07:00,
2013-01-17 04:12:00,6.1,-1.3,29.62,NNE,22,3.1,4.6,71,0.00,CLR,,0.00,WeatherDisplay:10.37,2013-01-17 13:12:00,
2013-01-17 04:17:00,6.1,-1.3,29.62,NNE,22,4.0,4.6,71,0.00,CLR,,0.00,WeatherDisplay:10.37,2013-01-17 13:17:00,
2013-01-17 04:22:00,6.1,-1.3,29.62,NNE,22,3.1,4.6,71,0.00,CLR,,0.00,WeatherDisplay:10.37,2013-01-17 13:22:00,
2013-01-17 04:27:00,6.1,-1.3,29.65,NNE,22,2.9,2.9,71,0.00,CLR,,0.00,WeatherDisplay:10.37,2013-01-17 13:27:00,
2013-01-17 04:32:00,6.1,-1.3,29.65,NNE,22,3.6,4.6,71,0.00,CLR,,0.00,WeatherDisplay:10.37,2013-01-17 13:32:00,
2013-01-17 04:37:00,5.9,-1.5,29.65,NNE,22,2.2,2.3,71,0.00,CLR,,0.00,WeatherDisplay:10.37,2013-01-17 13:37:00,
2013-01-17 04:42:00,5.9,-1.5,29.65,NNE,22,3.1,4.6,71,0.00,CLR,,0.00,WeatherDisplay:10.37,2013-01-17 13:42:00,
2013-01-17 04:47:00,5.9,-1.5,29.65,NNE,22,3.3,4.6,71,0.00,CLR,,0.00,WeatherDisplay:10.37,2013-01-17 13:47:00,
2013-01-17 04:52:00,5.9,-1.5,29.65,NNE,22,2.0,2.3,71,0.00,CLR,,0.00,WeatherDisplay:10.37,2013-01-17 13:52:00,
2013-01-17 04:57:00,5.9,-1.5,29.65,NNE,22,3.3,3.5,71,0.00,CLR,,0.00,WeatherDisplay:10.37,2013-01-17 13:57:00,
2013-01-17 05:02:00,5.9,-1.5,29.65,NNE,22,3.1,4.6,71,0.00,CLR,,0.00,WeatherDisplay:10.37,2013-01-17 14:02:00,
2013-01-17 05:07:00,5.9,-1.5,29.65,NNE,22,4.5,5.8,71,0.00,CLR,,0.00,WeatherDisplay:10.37,2013-01-17 14:07:00,
2013-01-17 05:12:00,5.9,-1.5,29.65,North,0,3.6,5.8,71,0.00,CLR,,0.00,WeatherDisplay:10.37,2013-01-17 14:12:00,
2013-01-17 05:17:00,5.9,-1.5,29.65,NNW,338,4.3,5.4,71,0.00,CLR,,0.00,WeatherDisplay:10.37,2013-01-17 14:17:00,
2013-01-17 05:22:00,5.9,-1.5,29.65,NNW,338,3.3,5.8,71,0.00,CLR,,0.00,WeatherDisplay:10.37,2013-01-17 14:22:00,
2013-01-17 05:27:00,5.9,-1.5,29.65,NNE,22,4.3,4.6,71,0.00,CLR,,0.00,WeatherDisplay:10.37,2013-01-17 14:27:00,
2013-01-17 05:32:00,5.9,-1.5,29.65,North,0,3.8,4.6,71,0.00,CLR,,0.00,WeatherDisplay:10.37,2013-01-17 14:32:00,
2013-01-17 05:37:00,5.7,-1.7,29.65,North,0,3.1,4.6,71,0.00,CLR,,0.00,WeatherDisplay:10.37,2013-01-17 14:37:00,
2013-01-17 05:42:00,5.7,-1.7,29.65,North,0,4.3,6.2,71,0.00,CLR,,0.00,WeatherDisplay:10.37,2013-01-17 14:42:00,
2013-01-17 05:47:00,5.7,-1.7,29.65,NNE,22,3.6,5.8,71,0.00,CLR,,0.00,WeatherDisplay:10.37,2013-01-17 14:47:00,
2013-01-17 05:52:00,5.7,-1.7,29.65,North,0,2.6,2.6,71,0.00,CLR,,0.00,WeatherDisplay:10.37,2013-01-17 14:52:00,
2013-01-17 05:57:00,5.7,-1.7,29.65,NNE,22,3.8,4.6,71,0.00,CLR,,0.00,WeatherDisplay:10.37,2013-01-17 14:57:00,
2013-01-17 06:02:00,5.7,-1.7,29.65,NNW,338,3.1,4.6,71,0.00,CLR,,0.00,WeatherDisplay:10.37,2013-01-17 15:02:00,
2013-01-17 06:07:00,5.7,-1.7,29.65,North,0,2.9,4.6,71,0.00,CLR,,0.00,WeatherDisplay:10.37,2013-01-17 15:07:00,
2013-01-17 06:12:00,5.5,-1.8,29.65,North,0,3.1,4.0,71,0.00,CLR,,0.00,WeatherDisplay:10.37,2013-01-17 15:12:00,
2013-01-17 06:17:00,5.5,-1.8,29.65,North,0,3.1,4.6,71,0.00,CLR,,0.00,WeatherDisplay:10.37,2013-01-17 15:17:00,
2013-01-17 06:22:00,5.5,-1.8,29.65,North,0,3.8,4.6,71,0.00,CLR,,0.00,WeatherDisplay:10.37,2013-01-17 15:22:00,
2013-01-17 06:27:00,5.5,-1.8,29.65,North,0,3.6,4.6,71,0.00,CLR,,0.00,WeatherDisplay:10.37,2013-01-17 15:27:00,
2013-01-17 06:32:00,5.4,-2.0,29.65,North,0,3.8,4.6,71,0.00,CLR,,0.00,WeatherDisplay:10.37,2013-01-17 15:32:00,
2013-01-17 06:37:00,5.4,-2.0,29.65,NNW,338,2.9,4.3,71,0.00,CLR,,0.00,WeatherDisplay:10.37,2013-01-17 15:37:00,
2013-01-17 06:42:00,5.4,-2.0,29.65,NNE,22,3.1,4.6,71,0.00,CLR,,0.00,WeatherDisplay:10.37,2013-01-17 15:42:00,
2013-01-17 06:47:00,5.2,-2.2,29.65,NNE,22,3.1,4.5,71,0.00,CLR,,0.00,WeatherDisplay:10.37,2013-01-17 15:47:00,
2013-01-17 06:52:00,5.2,-2.2,29.65,NNE,22,3.1,4.0,71,0.00,CLR,,0.00,WeatherDisplay:10.37,2013-01-17 15:52:00,
2013-01-17 06:57:00,5.0,-2.4,29.65,NNE,22,3.8,4.6,71,0.00,CLR,,0.00,WeatherDisplay:10.37,2013-01-17 15:57:00,
2013-01-17 07:02:00,5.0,-2.4,29.65,NNE,22,2.6,3.5,71,0.00,CLR,,0.00,WeatherDisplay:10.37,2013-01-17 16:02:00,
2013-01-17 07:07:00,5.0,-2.4,29.65,NNE,22,3.6,4.6,71,0.00,CLR,,0.00,WeatherDisplay:10.37,2013-01-17 16:07:00,
2013-01-17 07:12:00,4.8,-2.5,29.65,North,0,3.1,3.5,71,0.00,CLR,,0.00,WeatherDisplay:10.37,2013-01-17 16:12:00,
2013-01-17 07:17:00,4.6,-2.7,29.65,North,0,3.8,4.6,71,0.00,CLR,,0.00,WeatherDisplay:10.37,2013-01-17 16:17:00,
2013-01-17 07:22:00,4.6,-2.7,29.67,NNW,338,3.8,5.8,71,0.00,CLR,,0.00,WeatherDisplay:10.37,2013-01-17 16:22:00,
2013-01-17 07:27:00,4.5,-2.9,29.67,NNE,22,4.0,4.6,71,0.00,CLR,,0.00,WeatherDisplay:10.37,2013-01-17 16:27:00,
2013-01-17 07:32:00,4.5,-2.9,29.67,NNE,22,3.3,4.6,71,0.00,CLR,,0.00,WeatherDisplay:10.37,2013-01-17 16:32:00,
2013-01-17 07:37:00,4.5,-2.9,29.67,NNW,338,2.6,4.6,71,0.00,CLR,,0.00,WeatherDisplay:10.37,2013-01-17 16:37:00,
2013-01-17 07:42:00,4.5,-2.9,29.67,North,0,3.6,5.8,71,0.00,CLR,,0.00,WeatherDisplay:10.37,2013-01-17 16:42:00,
2013-01-17 07:47:00,4.5,-2.9,29.67,North,0,3.8,4.6,71,0.00,CLR,,0.00,WeatherDisplay:10.37,2013-01-17 16:47:00,
2013-01-17 07:52:00,4.5,-2.9,29.67,NNW,338,4.0,4.6,71,0.00,CLR,,0.00,WeatherDisplay:10.37,2013-01-17 16:52:00,
2013-01-17 07:57:00,4.5,-2.9,29.67,NNE,22,4.7,5.8,71,0.00,CLR,,0.00,WeatherDisplay:10.37,2013-01-17 16:57:00,
2013-01-17 08:02:00,4.5,-2.9,29.67,North,0,3.8,4.6,71,0.00,CLR,,0.00,WeatherDisplay:10.37,2013-01-17 17:02:00,
2013-01-17 08:07:00,4.5,-2.9,29.67,NNE,22,3.3,4.6,71,0.00,CLR,,0.00,WeatherDisplay:10.37,2013-01-17 17:07:00,
2013-01-17 08:12:00,4.5,-2.9,29.67,North,0,3.3,4.6,71,0.00,CLR,,0.00,WeatherDisplay:10.37,2013-01-17 17:12:00,
2013-01-17 08:17:00,4.5,-2.9,29.67,North,0,4.3,4.6,71,0.00,CLR,,0.00,WeatherDisplay:10.37,2013-01-17 17:17:00,
2013-01-17 08:22:00,4.5,-2.9,29.67,NNE,22,4.0,4.7,71,0.00,CLR,,0.00,WeatherDisplay:10.37,2013-01-17 17:22:00,
2013-01-17 08:27:00,4.5,-2.9,29.67,NNW,338,2.9,4.6,71,0.00,CLR,,0.00,WeatherDisplay:10.37,2013-01-17 17:27:00,
2013-01-17 08:32:00,4.5,-2.9,29.67,NNE,22,4.5,5.8,71,0.00,CLR,,0.00,WeatherDisplay:10.37,2013-01-17 17:32:00,
2013-01-17 08:37:00,4.5,-2.9,29.67,NNW,338,4.7,4.7,71,0.00,CLR,,0.00,WeatherDisplay:10.37,2013-01-17 17:37:00,
2013-01-17 08:42:00,4.5,-2.9,29.67,NNW,338,2.4,3.5,71,0.00,CLR,,0.00,WeatherDisplay:10.37,2013-01-17 17:42:00,
2013-01-17 08:47:00,4.5,-2.9,29.67,North,0,3.3,5.8,71,0.00,CLR,,0.00,WeatherDisplay:10.37,2013-01-17 17:47:00,
2013-01-17 08:52:00,4.5,-2.9,29.67,NNE,22,5.6,5.8,71,0.00,CLR,,0.00,WeatherDisplay:10.37,2013-01-17 17:52:00,
2013-01-17 08:57:00,4.5,-2.9,29.67,NNE,22,5.4,5.8,71,0.00,CLR,,0.00,WeatherDisplay:10.37,2013-01-17 17:57:00,
2013-01-17 09:02:00,4.5,-2.9,29.67,NNW,338,4.3,5.8,71,0.00,CLR,,0.00,WeatherDisplay:10.37,2013-01-17 18:02:00,
2013-01-17 09:07:00,4.5,-2.9,29.67,NNE,22,5.4,6.9,71,0.00,CLR,,0.00,WeatherDisplay:10.37,2013-01-17 18:07:00,
2013-01-17 09:12:00,4.3,-3.0,29.67,NNW,338,3.6,5.8,71,0.00,CLR,,0.00,WeatherDisplay:10.37,2013-01-17 18:12:00,
2013-01-17 09:17:00,4.3,-3.0,29.67,NNE,22,3.8,4.6,71,0.00,CLR,,0.00,WeatherDisplay:10.37,2013-01-17 18:17:00,
2013-01-17 09:22:00,4.1,-3.2,29.70,NNW,338,3.6,4.6,71,0.00,CLR,,0.00,WeatherDisplay:10.37,2013-01-17 18:22:00,
2013-01-17 09:27:00,4.1,-3.2,29.70,NNE,22,5.4,5.8,71,0.00,CLR,,0.00,WeatherDisplay:10.37,2013-01-17 18:27:00,
2013-01-17 09:32:00,4.1,-3.2,29.70,NNW,338,4.3,6.2,71,0.00,CLR,,0.00,WeatherDisplay:10.37,2013-01-17 18:32:00,
2013-01-17 09:37:00,4.1,-3.2,29.70,North,0,3.8,4.6,71,0.00,CLR,,0.00,WeatherDisplay:10.37,2013-01-17 18:37:00,
2013-01-17 09:43:00,4.1,-3.2,29.70,NNE,22,4.7,6.9,71,0.00,CLR,,0.00,WeatherDisplay:10.37,2013-01-17 18:43:00,
2013-01-17 09:47:00,3.9,-3.4,29.70,NNE,22,3.3,3.8,71,0.00,CLR,,0.00,WeatherDisplay:10.37,2013-01-17 18:47:00,
2013-01-17 09:53:00,3.9,-3.4,29.70,North,0,4.3,5.8,71,0.00,CLR,,0.00,WeatherDisplay:10.37,2013-01-17 18:53:00,
2013-01-17 09:58:00,3.7,-3.6,29.70,North,0,4.3,5.8,71,0.00,CLR,,0.00,WeatherDisplay:10.37,2013-01-17 18:58:00,
2013-01-17 10:03:00,3.7,-3.6,29.70,NNE,22,4.7,6.9,71,0.00,CLR,,0.00,WeatherDisplay:10.37,2013-01-17 19:03:00,
2013-01-17 10:08:00,3.7,-3.6,29.70,NNE,22,4.0,6.9,71,0.00,CLR,,0.00,WeatherDisplay:10.37,2013-01-17 19:08:00,
2013-01-17 10:13:00,3.7,-3.6,29.70,NNW,338,4.9,5.8,71,0.00,CLR,,0.00,WeatherDisplay:10.37,2013-01-17 19:13:00,
2013-01-17 10:18:00,3.6,-3.7,29.70,North,0,6.4,8.1,71,0.00,CLR,,0.00,WeatherDisplay:10.37,2013-01-17 19:18:00,
2013-01-17 10:23:00,3.4,-3.9,29.70,NNE,22,6.4,6.9,71,0.00,CLR,,0.00,WeatherDisplay:10.37,2013-01-17 19:23:00,
2013-01-17 10:28:00,3.4,-3.9,29.70,NNE,22,4.9,5.8,71,0.00,CLR,,0.00,WeatherDisplay:10.37,2013-01-17 19:28:00,
2013-01-17 10:33:00,3.2,-4.1,29.70,North,0,4.0,4.6,71,0.00,CLR,,0.00,WeatherDisplay:10.37,2013-01-17 19:33:00,
2013-01-17 10:38:00,3.2,-4.1,29.70,North,0,4.7,6.9,71,0.00,CLR,,0.00,WeatherDisplay:10.37,2013-01-17 19:38:00,
2013-01-17 10:43:00,3.2,-4.1,29.70,North,0,4.3,4.6,71,0.00,CLR,,0.00,WeatherDisplay:10.37,2013-01-17 19:43:00,
2013-01-17 10:48:00,3.2,-4.1,29.70,NNW,338,4.0,4.6,71,0.00,CLR,,0.00,WeatherDisplay:10.37,2013-01-17 19:48:00,
2013-01-17 10:53:00,3.0,-4.3,29.70,NW,315,4.0,4.6,71,0.00,CLR,,0.00,WeatherDisplay:10.37,2013-01-17 19:53:00,
2013-01-17 10:58:00,3.0,-4.3,29.70,NNW,338,4.0,5.8,71,0.00,CLR,,0.00,WeatherDisplay:10.37,2013-01-17 19:58:00,
2013-01-17 11:03:00,3.0,-4.3,29.70,NW,315,3.8,5.8,71,0.00,CLR,,0.00,WeatherDisplay:10.37,2013-01-17 20:03:00,
2013-01-17 11:08:00,3.0,-4.3,29.70,NNW,338,3.6,3.6,71,0.00,CLR,,0.00,WeatherDisplay:10.37,2013-01-17 20:08:00,
2013-01-17 11:13:00,3.0,-4.3,29.70,NNW,338,4.3,5.8,71,0.00,CLR,,0.00,WeatherDisplay:10.37,2013-01-17 20:13:00,
2013-01-17 11:18:00,3.0,-4.3,29.70,North,0,4.0,5.4,71,0.00,CLR,,0.00,WeatherDisplay:10.37,2013-01-17 20:18:00,
2013-01-17 11:23:00,3.0,-4.3,29.70,NNW,338,2.2,4.6,71,0.00,CLR,,0.00,WeatherDisplay:10.37,2013-01-17 20:23:00,
2013-01-17 11:28:00,3.0,-4.3,29.70,North,0,3.8,4.6,71,0.00,CLR,,0.00,WeatherDisplay:10.37,2013-01-17 20:28:00,
2013-01-17 11:33:00,3.2,-4.1,29.70,NNW,338,3.6,4.6,71,0.00,CLR,,0.00,WeatherDisplay:10.37,2013-01-17 20:33:00,
2013-01-17 11:38:00,3.2,-4.1,29.73,North,0,4.5,5.8,71,0.00,CLR,,0.00,WeatherDisplay:10.37,2013-01-17 20:38:00,
2013-01-17 11:43:00,3.2,-4.1,29.73,NNE,22,4.7,5.8,71,0.00,CLR,,0.00,WeatherDisplay:10.37,2013-01-17 20:43:00,
2013-01-17 11:48:00,3.0,-4.3,29.73,NNE,22,6.2,8.1,71,0.00,CLR,,0.00,WeatherDisplay:10.37,2013-01-17 20:48:00,
2013-01-17 11:53:00,3.0,-4.3,29.73,North,0,6.7,8.1,71,0.00,CLR,,0.00,WeatherDisplay:10.37,2013-01-17 20:53:00,
2013-01-17 11:58:00,3.0,-4.3,29.73,NE,45,3.8,4.6,71,0.00,CLR,,0.00,WeatherDisplay:10.37,2013-01-17 20:58:00,
2013-01-17 12:03:00,3.0,-4.3,29.73,NNE,22,3.8,5.8,71,0.00,CLR,,0.00,WeatherDisplay:10.37,2013-01-17 21:03:00,
2013-01-17 12:08:00,3.0,-4.3,29.73,NNE,22,4.3,5.8,71,0.00,CLR,,0.00,WeatherDisplay:10.37,2013-01-17 21:08:00,
2013-01-17 12:13:00,3.2,-4.1,29.73,North,0,4.0,5.8,71,0.00,CLR,,0.00,WeatherDisplay:10.37,2013-01-17 21:13:00,
2013-01-17 12:18:00,3.2,-4.1,29.73,NNE,22,5.4,5.9,71,0.00,CLR,,0.00,WeatherDisplay:10.37,2013-01-17 21:18:00,
2013-01-17 12:23:00,3.2,-4.1,29.73,NNE,22,2.9,4.6,71,0.00,CLR,,0.00,WeatherDisplay:10.37,2013-01-17 21:23:00,
2013-01-17 12:28:00,3.2,-4.1,29.73,NNE,22,5.4,5.8,71,0.00,CLR,,0.00,WeatherDisplay:10.37,2013-01-17 21:28:00,
2013-01-17 12:33:00,3.2,-4.1,29.73,North,0,4.3,5.8,71,0.00,CLR,,0.00,WeatherDisplay:10.37,2013-01-17 21:33:00,
2013-01-17 12:38:00,3.2,-4.1,29.73,North,0,4.5,5.8,71,0.00,CLR,,0.00,WeatherDisplay:10.37,2013-01-17 21:38:00,
2013-01-17 12:43:00,3.2,-4.1,29.73,North,0,3.1,4.6,71,0.00,CLR,,0.00,WeatherDisplay:10.37,2013-01-17 21:43:00,
2013-01-17 12:48:00,3.2,-4.1,29.73,NNE,22,3.3,4.6,71,0.00,CLR,,0.00,WeatherDisplay:10.37,2013-01-17 21:48:00,
2013-01-17 12:53:00,3.2,-4.1,29.73,NNW,338,3.3,4.6,71,0.00,CLR,,0.00,WeatherDisplay:10.37,2013-01-17 21:53:00,
2013-01-17 12:58:00,3.2,-4.1,29.73,NNE,22,5.4,5.8,71,0.00,CLR,,0.00,WeatherDisplay:10.37,2013-01-17 21:58:00,
2013-01-17 13:03:00,3.4,-3.9,29.73,NNE,22,3.3,4.9,71,0.00,CLR,,0.00,WeatherDisplay:10.37,2013-01-17 22:03:00,
2013-01-17 13:08:00,3.4,-3.9,29.76,NNE,22,3.1,4.3,71,0.00,CLR,,0.00,WeatherDisplay:10.37,2013-01-17 22:08:00,
2013-01-17 13:13:00,3.4,-3.9,29.76,NNE,22,5.9,5.9,71,0.00,CLR,,0.00,WeatherDisplay:10.37,2013-01-17 22:13:00,
2013-01-17 13:18:00,3.2,-4.1,29.76,NNE,22,4.9,5.8,71,0.00,CLR,,0.00,WeatherDisplay:10.37,2013-01-17 22:18:00,
2013-01-17 13:23:00,3.2,-4.1,29.76,NNW,338,4.9,6.9,71,0.00,CLR,,0.00,WeatherDisplay:10.37,2013-01-17 22:23:00,
2013-01-17 13:28:00,3.2,-4.1,29.76,NNE,22,6.9,9.2,71,0.00,CLR,,0.00,WeatherDisplay:10.37,2013-01-17 22:28:00,
2013-01-17 13:33:00,3.2,-4.1,29.76,NNE,22,6.2,8.1,71,0.00,CLR,,0.00,WeatherDisplay:10.37,2013-01-17 22:33:00,
2013-01-17 13:38:00,2.8,-4.4,29.76,NW,315,6.9,9.2,71,0.00,CLR,,0.00,WeatherDisplay:10.37,2013-01-17 22:38:00,
2013-01-17 13:43:00,2.8,-4.4,29.76,North,0,6.7,8.5,71,0.00,CLR,,0.00,WeatherDisplay:10.37,2013-01-17 22:43:00,
2013-01-17 13:48:00,2.5,-4.8,29.76,NNE,22,5.4,6.9,71,0.00,CLR,,0.00,WeatherDisplay:10.37,2013-01-17 22:48:00,
2013-01-17 13:53:00,1.9,-5.3,29.73,North,0,8.1,8.5,71,0.00,CLR,,0.00,WeatherDisplay:10.37,2013-01-17 22:53:00,
2013-01-17 13:58:00,1.6,-5.7,29.73,North,0,6.9,11.5,71,0.00,CLR,,0.00,WeatherDisplay:10.37,2013-01-17 22:58:00,
2013-01-17 14:03:00,1.0,-6.2,29.73,NW,315,6.4,8.1,71,0.00,CLR,,0.00,WeatherDisplay:10.37,2013-01-17 23:03:00,
2013-01-17 14:08:00,0.7,-6.5,29.76,North,0,5.9,10.9,71,0.00,CLR,,0.00,WeatherDisplay:10.37,2013-01-17 23:08:00,
2013-01-17 14:13:00,0.5,-6.7,29.76,North,0,4.5,9.2,71,0.00,CLR,,0.00,WeatherDisplay:10.37,2013-01-17 23:13:00,
2013-01-17 14:18:00,0.3,-6.9,29.76,North,0,4.7,10.4,71,0.00,CLR,,0.00,WeatherDisplay:10.37,2013-01-17 23:18:00,
2013-01-17 14:23:00,0.3,-6.9,29.76,NNW,338,4.5,9.2,71,0.00,CLR,,0.00,WeatherDisplay:10.37,2013-01-17 23:23:00,
2013-01-17 14:28:00,0.1,-7.0,29.76,NNW,338,5.4,8.1,71,0.00,CLR,,0.00,WeatherDisplay:10.37,2013-01-17 23:28:00,
2013-01-17 14:33:00,0.1,-7.0,29.76,North,0,6.2,9.2,71,0.00,CLR,,0.00,WeatherDisplay:10.37,2013-01-17 23:33:00,
2013-01-17 14:38:00,0.0,-7.2,29.76,NNW,338,4.3,5.8,71,0.00,CLR,,0.00,WeatherDisplay:10.37,2013-01-17 23:38:00,
2013-01-17 14:43:00,0.0,-7.2,29.76,NNE,22,4.3,5.8,71,0.00,CLR,,0.00,WeatherDisplay:10.37,2013-01-17 23:43:00,
2013-01-17 14:48:00,0.0,-7.2,29.76,NNW,338,5.9,5.9,71,0.00,CLR,,0.00,WeatherDisplay:10.37,2013-01-17 23:48:00,
2013-01-17 14:53:00,0.0,-7.2,29.76,NNW,338,6.2,6.2,71,0.00,CLR,,0.00,WeatherDisplay:10.37,2013-01-17 23:53:00,
2013-01-17 14:58:00,-0.2,-7.4,29.76,North,0,6.0,9.2,71,0.00,CLR,,0.00,WeatherDisplay:10.37,2013-01-17 23:58:00,
2013-01-17 15:03:00,-0.4,-7.6,29.76,NNW,338,4.9,6.9,71,0.00,CLR,,0.00,WeatherDisplay:10.37,2013-01-18 00:03:00,
2013-01-17 15:08:00,-0.6,-7.7,29.79,NNW,338,4.5,5.8,71,0.00,CLR,,0.00,WeatherDisplay:10.37,2013-01-18 00:08:00,
2013-01-17 15:13:00,-0.6,-7.7,29.79,NNW,338,3.8,5.8,71,0.00,CLR,,0.00,WeatherDisplay:10.37,2013-01-18 00:13:00,
2013-01-17 15:18:00,-0.6,-7.7,29.79,NNW,338,4.0,5.9,71,0.00,CLR,,0.00,WeatherDisplay:10.37,2013-01-18 00:18:00,
2013-01-17 15:23:00,-0.6,-7.7,29.79,NNW,338,4.7,8.1,71,0.00,CLR,,0.00,WeatherDisplay:10.37,2013-01-18 00:23:00,
2013-01-17 15:29:00,-0.8,-7.9,29.79,WNW,292,2.0,3.5,71,0.00,CLR,,0.00,WeatherDisplay:10.37,2013-01-18 00:29:00,
2013-01-17 15:34:00,-0.9,-8.1,29.79,North,0,4.7,5.8,71,0.00,CLR,,0.00,WeatherDisplay:10.37,2013-01-18 00:34:00,
2013-01-17 15:39:00,-0.9,-8.1,29.79,NNW,338,5.9,6.9,71,0.00,CLR,,0.00,WeatherDisplay:10.37,2013-01-18 00:39:00,
2013-01-17 15:44:00,-0.9,-8.1,29.79,North,0,4.3,4.6,71,0.00,CLR,,0.00,WeatherDisplay:10.37,2013-01-18 00:44:00,
2013-01-17 15:49:00,-1.1,-8.3,29.79,North,0,5.9,5.9,71,0.00,CLR,,0.00,WeatherDisplay:10.37,2013-01-18 00:49:00,
2013-01-17 15:54:00,-1.1,-8.3,29.79,WNW,292,4.3,5.8,71,0.00,CLR,,0.00,WeatherDisplay:10.37,2013-01-18 00:54:00,
2013-01-17 15:59:00,-1.3,-8.4,29.79,NNW,338,4.9,6.9,71,0.00,CLR,,0.00,WeatherDisplay:10.37,2013-01-18 00:59:00,
2013-01-17 16:04:00,-1.3,-8.4,29.79,NNW,338,4.9,5.8,71,0.00,CLR,,0.00,WeatherDisplay:10.37,2013-01-18 01:04:00,
2013-01-17 16:09:00,-1.3,-8.4,29.79,NNE,22,4.3,6.9,71,0.00,CLR,,0.00,WeatherDisplay:10.37,2013-01-18 01:09:00,
2013-01-17 16:14:00,-1.3,-8.4,29.79,NNE,22,6.2,9.2,71,0.00,CLR,,0.00,WeatherDisplay:10.37,2013-01-18 01:14:00,
2013-01-17 16:19:00,-1.5,-8.6,29.79,NNW,338,3.3,5.8,71,0.00,CLR,,0.00,WeatherDisplay:10.37,2013-01-18 01:19:00,
2013-01-17 16:24:00,-1.5,-8.6,29.79,North,0,2.4,5.8,71,0.00,CLR,,0.00,WeatherDisplay:10.37,2013-01-18 01:24:00,
2013-01-17 16:29:00,-1.5,-8.6,29.79,NNW,338,3.6,6.9,71,0.00,CLR,,0.00,WeatherDisplay:10.37,2013-01-18 01:29:00,
2013-01-17 16:34:00,-1.7,-8.8,29.79,NNW,338,4.0,5.8,71,0.00,CLR,,0.00,WeatherDisplay:10.37,2013-01-18 01:34:00,
2013-01-17 16:39:00,-1.7,-8.8,29.82,NNW,338,3.8,5.8,71,0.00,CLR,,0.00,WeatherDisplay:10.37,2013-01-18 01:39:00,
2013-01-17 16:44:00,-1.7,-8.8,29.82,NNE,22,4.3,6.0,71,0.00,CLR,,0.00,WeatherDisplay:10.37,2013-01-18 01:44:00,
2013-01-17 16:49:00,-1.7,-8.8,29.82,NNW,338,2.9,2.9,71,0.00,CLR,,0.00,WeatherDisplay:10.37,2013-01-18 01:49:00,
2013-01-17 16:54:00,-1.8,-9.0,29.82,NNW,338,3.8,4.6,71,0.00,CLR,,0.00,WeatherDisplay:10.37,2013-01-18 01:54:00,
2013-01-17 16:59:00,-1.8,-9.0,29.82,NNW,338,3.8,5.8,71,0.00,CLR,,0.00,WeatherDisplay:10.37,2013-01-18 01:59:00,
2013-01-17 17:04:00,-1.8,-9.0,29.82,NNW,338,2.9,3.5,71,0.00,CLR,,0.00,WeatherDisplay:10.37,2013-01-18 02:04:00,
2013-01-17 17:09:00,-1.8,-9.0,29.79,NW,315,3.6,4.9,71,0.00,CLR,,0.00,WeatherDisplay:10.37,2013-01-18 02:09:00,
2013-01-17 17:14:00,-1.8,-9.0,29.79,NNW,338,4.3,4.9,71,0.00,CLR,,0.00,WeatherDisplay:10.37,2013-01-18 02:14:00,
2013-01-17 17:19:00,-1.8,-9.0,29.79,NNW,338,4.0,4.6,71,0.00,CLR,,0.00,WeatherDisplay:10.37,2013-01-18 02:19:00,
2013-01-17 17:24:00,-2.0,-9.1,29.82,NNW,338,4.3,5.8,71,0.00,CLR,,0.00,WeatherDisplay:10.37,2013-01-18 02:24:00,
2013-01-17 17:29:00,-2.0,-9.1,29.82,NNW,338,3.6,3.6,71,0.00,CLR,,0.00,WeatherDisplay:10.37,2013-01-18 02:29:00,
2013-01-17 17:34:00,-2.0,-9.1,29.82,NNW,338,2.9,3.5,71,0.00,CLR,,0.00,WeatherDisplay:10.37,2013-01-18 02:34:00,
2013-01-17 17:39:00,-2.2,-9.3,29.82,NW,315,3.8,4.9,71,0.00,CLR,,0.00,WeatherDisplay:10.37,2013-01-18 02:39:00,
2013-01-17 17:44:00,-2.2,-9.3,29.82,NNW,338,4.3,4.6,71,0.00,CLR,,0.00,WeatherDisplay:10.37,2013-01-18 02:44:00,
2013-01-17 17:49:00,-2.2,-9.3,29.82,NNW,338,4.3,5.8,71,0.00,CLR,,0.00,WeatherDisplay:10.37,2013-01-18 02:49:00,
2013-01-17 17:54:00,-2.2,-9.3,29.79,NNW,338,4.3,5.8,71,0.00,CLR,,0.00,WeatherDisplay:10.37,2013-01-18 02:54:00,
2013-01-17 17:59:00,-2.2,-9.3,29.79,NW,315,3.6,5.6,71,0.00,CLR,,0.00,WeatherDisplay:10.37,2013-01-18 02:59:00,
2013-01-17 18:04:00,-2.4,-9.5,29.79,NNW,338,4.5,6.4,71,0.00,CLR,,0.00,WeatherDisplay:10.37,2013-01-18 03:04:00,
2013-01-17 18:09:00,-2.4,-9.5,29.82,NNW,338,4.5,5.8,71,0.00,CLR,,0.00,WeatherDisplay:10.37,2013-01-18 03:09:00,
2013-01-17 18:14:00,-2.4,-9.5,29.82,NNW,338,5.6,5.8,71,0.00,CLR,,0.00,WeatherDisplay:10.37,2013-01-18 03:14:00,
2013-01-17 18:19:00,-2.4,-9.5,29.82,NNW,338,3.3,4.6,71,0.00,CLR,,0.00,WeatherDisplay:10.37,2013-01-18 03:19:00,
2013-01-17 18:24:00,-2.6,-9.6,29.82,NNW,338,4.0,5.8,71,0.00,CLR,,0.00,WeatherDisplay:10.37,2013-01-18 03:24:00,
2013-01-17 18:29:00,-2.6,-9.6,29.82,NNW,338,2.4,3.5,71,0.00,CLR,,0.00,WeatherDisplay:10.37,2013-01-18 03:29:00,
2013-01-17 18:34:00,-2.6,-9.6,29.82,NNE,22,2.9,5.8,71,0.00,CLR,,0.00,WeatherDisplay:10.37,2013-01-18 03:34:00,
2013-01-17 18:39:00,-2.6,-9.6,29.85,NNW,338,4.0,5.8,71,0.00,CLR,,0.00,WeatherDisplay:10.37,2013-01-18 03:39:00,
2013-01-17 18:44:00,-2.6,-9.6,29.85,NNW,338,4.5,5.8,71,0.00,CLR,,0.00,WeatherDisplay:10.37,2013-01-18 03:44:00,
2013-01-17 18:49:00,-2.9,-10.0,29.85,NNW,338,3.8,4.6,71,0.00,CLR,,0.00,WeatherDisplay:10.37,2013-01-18 03:49:00,
2013-01-17 18:54:00,-3.1,-10.2,29.82,WNW,292,4.3,4.6,71,0.00,CLR,,0.00,WeatherDisplay:10.37,2013-01-18 03:54:00,
2013-01-17 18:59:00,-3.1,-10.2,29.82,NNW,338,4.0,5.8,71,0.00,CLR,,0.00,WeatherDisplay:10.37,2013-01-18 03:59:00,
2013-01-17 19:04:00,-3.3,-10.3,29.82,NNW,338,3.3,4.6,71,0.00,CLR,,0.00,WeatherDisplay:10.37,2013-01-18 04:04:00,
2013-01-17 19:09:00,-3.5,-10.5,29.85,North,0,4.0,4.6,71,0.00,CLR,,0.00,WeatherDisplay:10.37,2013-01-18 04:09:00,
2013-01-17 19:14:00,-3.5,-10.5,29.85,NNW,338,3.6,3.6,71,0.00,CLR,,0.00,WeatherDisplay:10.37,2013-01-18 04:14:00,
2013-01-17 19:19:00,-3.5,-10.5,29.85,NNW,338,3.3,4.6,71,0.00,CLR,,0.00,WeatherDisplay:10.37,2013-01-18 04:19:00,
2013-01-17 19:24:00,-3.6,-10.7,29.85,NNW,338,3.8,4.6,71,0.00,CLR,,0.00,WeatherDisplay:10.37,2013-01-18 04:24:00,
2013-01-17 19:29:00,-3.6,-10.7,29.85,NNW,338,3.6,4.6,71,0.00,CLR,,0.00,WeatherDisplay:10.37,2013-01-18 04:29:00,
2013-01-17 19:34:00,-3.8,-10.9,29.85,North,0,4.9,5.8,71,0.00,CLR,,0.00,WeatherDisplay:10.37,2013-01-18 04:34:00,
2013-01-17 19:39:00,-3.8,-10.9,29.88,NNW,338,5.6,6.9,71,0.00,CLR,,0.00,WeatherDisplay:10.37,2013-01-18 04:39:00,
2013-01-17 19:44:00,-4.0,-11.0,29.88,NNW,338,4.5,5.8,71,0.00,CLR,,0.00,WeatherDisplay:10.37,2013-01-18 04:44:00,
2013-01-17 19:49:00,-4.2,-11.2,29.88,NNW,338,4.0,5.8,71,0.00,CLR,,0.00,WeatherDisplay:10.37,2013-01-18 04:49:00,
2013-01-17 19:54:00,-4.4,-11.4,29.88,NNW,338,4.9,5.8,71,0.00,CLR,,0.00,WeatherDisplay:10.37,2013-01-18 04:54:00,
2013-01-17 19:59:00,-4.4,-11.4,29.88,NNW,338,6.7,8.1,71,0.00,CLR,,0.00,WeatherDisplay:10.37,2013-01-18 04:59:00,
2013-01-17 20:00:00,-4.4,-11.4,29.88,NNW,338,4.5,5.8,71,0.00,CLR,,0.00,WeatherDisplay:10.37,2013-01-18 05:00:00,
2013-01-17 20:01:00,-4.4,-11.4,29.88,North,0,6.0,6.9,71,0.00,CLR,,0.00,WeatherDisplay:10.37,2013-01-18 05:01:00,
2013-01-17 20:03:00,-4.4,-11.4,29.88,NNW,338,5.4,6.9,71,0.00,CLR,,0.00,WeatherDisplay:10.37,2013-01-18 05:03:00,
2013-01-17 20:08:00,-4.5,-11.6,29.88,NNE,22,4.7,8.1,71,0.00,CLR,,0.00,WeatherDisplay:10.37,2013-01-18 05:08:00,
2013-01-17 20:13:00,-4.7,-11.7,29.88,NNW,338,3.3,4.6,71,0.00,CLR,,0.00,WeatherDisplay:10.37,2013-01-18 05:13:00,
2013-01-17 20:18:00,-4.7,-11.7,29.88,NNE,22,4.9,5.8,71,0.00,CLR,,0.00,WeatherDisplay:10.37,2013-01-18 05:18:00,
2013-01-17 20:23:00,-4.9,-11.9,29.88,NW,315,4.3,5.8,71,0.00,CLR,,0.00,WeatherDisplay:10.37,2013-01-18 05:23:00,
2013-01-17 20:28:00,-5.1,-12.1,29.88,NNW,338,2.9,3.5,71,0.00,CLR,,0.00,WeatherDisplay:10.37,2013-01-18 05:28:00,
2013-01-17 20:33:00,-5.1,-12.1,29.88,NNE,22,4.9,5.8,71,0.00,CLR,,0.00,WeatherDisplay:10.37,2013-01-18 05:33:00,
2013-01-17 20:38:00,-5.3,-12.3,29.88,NNW,338,5.6,5.8,71,0.00,CLR,,0.00,WeatherDisplay:10.37,2013-01-18 05:38:00,
2013-01-17 20:43:00,-5.3,-12.3,29.88,NNE,22,5.6,8.1,71,0.00,CLR,,0.00,WeatherDisplay:10.37,2013-01-18 05:43:00,
2013-01-17 20:48:00,-5.4,-12.4,29.88,NNW,338,5.4,8.1,71,0.00,CLR,,0.00,WeatherDisplay:10.37,2013-01-18 05:48:00,
2013-01-17 20:53:00,-5.6,-12.6,29.88,NNW,338,5.4,5.8,71,0.00,CLR,,0.00,WeatherDisplay:10.37,2013-01-18 05:53:00,
2013-01-17 20:58:00,-5.8,-12.8,29.88,North,0,2.9,3.5,71,0.00,CLR,,0.00,WeatherDisplay:10.37,2013-01-18 05:58:00,
2013-01-17 21:03:00,-6.0,-12.9,29.88,NW,315,3.1,3.5,71,0.00,CLR,,0.00,WeatherDisplay:10.37,2013-01-18 06:03:00,
2013-01-17 21:08:00,-6.2,-13.1,29.88,North,0,3.3,4.7,71,0.00,CLR,,0.00,WeatherDisplay:10.37,2013-01-18 06:08:00,
2013-01-17 21:13:00,-6.3,-13.3,29.88,North,0,2.2,3.5,71,0.00,CLR,,0.00,WeatherDisplay:10.37,2013-01-18 06:13:00,
2013-01-17 21:18:00,-6.3,-13.3,29.88,NNW,338,4.0,5.8,71,0.00,CLR,,0.00,WeatherDisplay:10.37,2013-01-18 06:18:00,
2013-01-17 21:23:00,-6.3,-13.3,29.88,NNW,338,3.3,5.8,71,0.00,CLR,,0.00,WeatherDisplay:10.37,2013-01-18 06:23:00,
2013-01-17 21:28:00,-6.5,-13.5,29.88,NNW,338,2.0,3.5,71,0.00,CLR,,0.00,WeatherDisplay:10.37,2013-01-18 06:28:00,
2013-01-17 21:33:00,-6.7,-13.6,29.88,NNW,338,3.6,4.6,71,0.00,CLR,,0.00,WeatherDisplay:10.37,2013-01-18 06:33:00,
2013-01-17 21:38:00,-6.9,-13.8,29.88,NNW,338,2.0,3.1,71,0.00,CLR,,0.00,WeatherDisplay:10.37,2013-01-18 06:38:00,
2013-01-17 21:43:00,-7.1,-14.0,29.88,NNW,338,4.7,5.8,71,0.00,CLR,,0.00,WeatherDisplay:10.37,2013-01-18 06:43:00,
2013-01-17 21:48:00,-7.2,-14.2,29.88,NNE,22,2.9,3.5,71,0.00,CLR,,0.00,WeatherDisplay:10.37,2013-01-18 06:48:00,
2013-01-17 21:53:00,-7.4,-14.3,29.91,NNW,338,2.2,2.4,71,0.00,CLR,,0.00,WeatherDisplay:10.37,2013-01-18 06:53:00,
2013-01-17 21:58:00,-7.6,-14.5,29.91,WNW,292,2.9,4.6,71,0.00,CLR,,0.00,WeatherDisplay:10.37,2013-01-18 06:58:00,
2013-01-17 22:03:00,-7.8,-14.7,29.91,NNW,338,4.3,4.6,71,0.00,CLR,,0.00,WeatherDisplay:10.37,2013-01-18 07:03:00,
2013-01-17 22:08:00,-7.8,-14.7,29.91,NNE,22,3.6,4.6,71,0.00,CLR,,0.00,WeatherDisplay:10.37,2013-01-18 07:08:00,
2013-01-17 22:13:00,-8.0,-14.9,29.91,NNW,338,3.6,4.6,71,0.00,CLR,,0.00,WeatherDisplay:10.37,2013-01-18 07:13:00,
2013-01-17 22:18:00,-8.0,-14.9,29.91,NNW,338,1.6,3.5,71,0.00,CLR,,0.00,WeatherDisplay:10.37,2013-01-18 07:18:00,
2013-01-17 22:23:00,-8.3,-15.2,29.91,WNW,292,1.4,2.3,71,0.00,CLR,,0.00,WeatherDisplay:10.37,2013-01-18 07:23:00,
2013-01-17 22:28:00,-8.7,-15.6,29.91,NW,315,2.0,2.3,71,0.00,CLR,,0.00,WeatherDisplay:10.37,2013-01-18 07:28:00,
2013-01-17 22:33:00,-9.0,-15.9,29.91,NNW,338,1.1,2.3,71,0.00,CLR,,0.00,WeatherDisplay:10.37,2013-01-18 07:33:00,
2013-01-17 22:38:00,-9.4,-16.3,29.91,WNW,292,1.1,1.1,71,0.00,CLR,,0.00,WeatherDisplay:10.37,2013-01-18 07:38:00,
2013-01-17 22:43:00,-9.8,-16.6,29.91,NW,315,0.0,0.0,71,0.00,CLR,,0.00,WeatherDisplay:10.37,2013-01-18 07:43:00,
2013-01-17 22:48:00,-10.3,-17.1,29.91,NW,315,1.6,2.3,71,0.00,CLR,,0.00,WeatherDisplay:10.37,2013-01-18 07:48:00,
2013-01-17 22:53:00,-10.7,-17.5,29.91,NW,315,2.0,2.3,71,0.00,CLR,,0.00,WeatherDisplay:10.37,2013-01-18 07:53:00,
2013-01-17 22:58:00,-11.0,-17.8,29.91,NW,315,0.9,1.1,71,0.00,CLR,,0.00,WeatherDisplay:10.37,2013-01-18 07:58:00,
2013-01-17 23:03:00,-11.4,-18.2,29.91,WNW,292,0.0,0.0,71,0.00,CLR,,0.00,WeatherDisplay:10.37,2013-01-18 08:03:00,
2013-01-17 23:08:00,-11.9,-18.7,29.91,WNW,292,0.0,0.0,71,0.00,CLR,,0.00,WeatherDisplay:10.37,2013-01-18 08:08:00,
2013-01-17 23:13:00,-12.3,-19.0,29.91,NW,315,0.0,0.0,71,0.00,CLR,,0.00,WeatherDisplay:10.37,2013-01-18 08:13:00,
2013-01-17 23:18:00,-12.8,-19.6,29.91,WNW,292,0.0,0.0,71,0.00,CLR,,0.00,WeatherDisplay:10.37,2013-01-18 08:18:00,
2013-01-17 23:24:00,-12.8,-19.6,29.94,WNW,292,2.0,2.3,71,0.00,CLR,,0.00,WeatherDisplay:10.37,2013-01-18 08:24:00,
2013-01-17 23:29:00,-13.2,-19.9,29.94,WNW,292,1.6,2.3,71,0.00,CLR,,0.00,WeatherDisplay:10.37,2013-01-18 08:29:00,
2013-01-17 23:34:00,-13.7,-20.4,29.94,WNW,292,0.0,0.0,71,0.00,CLR,,0.00,WeatherDisplay:10.37,2013-01-18 08:34:00,
2013-01-17 23:39:00,-14.3,-20.9,29.94,WNW,292,1.6,2.3,71,0.00,CLR,,0.00,WeatherDisplay:10.37,2013-01-18 08:39:00,
2013-01-17 23:44:00,-14.4,-21.1,29.94,WNW,292,1.6,2.3,71,0.00,CLR,,0.00,WeatherDisplay:10.37,2013-01-18 08:44:00,
2013-01-17 23:49:00,-15.0,-21.6,29.94,WNW,292,2.0,2.3,71,0.00,CLR,,0.00,WeatherDisplay:10.37,2013-01-18 08:49:00,
2013-01-17 23:54:00,-15.5,-22.2,29.94,WNW,292,2.0,2.3,71,0.00,CLR,,0.00,WeatherDisplay:10.37,2013-01-18 08:54:00,
2013-01-17 23:59:00,-16.1,-22.7,29.94,WNW,292,1.4,2.3,71,0.00,CLR,,0.00,WeatherDisplay:10.37,2013-01-18 08:59:00,